Regional Weather Roundup
Issued by NWS

Home | Current Version | Previous Version | Text Only | Print | Product List | Glossary Off
Versions: 1 2 3 4 5 6 7 8 9 10 11 12 13 14 15 16 17 18 19 20 21 22 23 24 25 26 27 28 29 30 31 32 33 34 35 36 37 38 39 40 41 42 43 44 45 46 47 48 49 50

000
ASUS43 KTOP 051608
RWRKS

WEATHER ROUNDUP FOR KANSAS
NATIONAL WEATHER SERVICE GOODLAND KS
1000 AM CST THU MAR 05 2015

NOTE:  "FAIR" INDICATES FEW OR NO CLOUDS BELOW 12,000 FEET WITH NO
SIGNIFICANT WEATHER AND/OR OBSTRUCTIONS TO VISIBILITY.

KSZ001>006-013>018-027>032-041>047-051700-
NORTHWEST KANSAS

CITY           SKY/WX    TMP DP  RH WIND       PRES   REMARKS
GOODLAND       SUNNY     31  16  54 SW7       30.31R
HAYS           FAIR      25   9  50 S3        30.44F
HILL CITY      SUNNY     20   8  60 CALM      30.42S
RUSSELL        SUNNY     24  12  60 S8        30.44S
$$

KSZ061>065-074>080-084>089-051700-
SOUTHWEST KANSAS

CITY           SKY/WX    TMP DP  RH WIND       PRES   REMARKS
DODGE CITY     SUNNY     28  15  58 SW12      30.44R WCI  18
ELKHART          N/A     28  17  63 SW13        N/A  WCI  17
GARDEN CITY    SUNNY     27  18  69 W9        30.40S
GREAT BEND     SUNNY     28  16  59 SW3       30.46F
LIBERAL        SUNNY     21  16  79 SW12      30.44F WCI   9
PRATT          SUNNY     30  18  59 W9        30.48R
$$

KSZ066>073-081>083-090>101-051700-
SOUTHEAST KANSAS

CITY           SKY/WX    TMP DP  RH WIND       PRES   REMARKS
CHANUTE        SUNNY     26  11  52 NE7       30.58R
COFFEYVILLE    SUNNY     28  12  51 VRB5      30.60R
HUTCHINSON     SUNNY     24  10  55 SE9       30.50S
MEDICINE LODGE   N/A     32  17  54 W3        30.50S
NEWTON         SUNNY     21   5  49 SE13      30.52S WCI   9
PARSONS        SUNNY     27  12  53 NE6       30.59R
WICHITA INTL   SUNNY     29  11  47 SE8       30.52F
WICHITA JABRA  SUNNY     26   9  48 SE7       30.52F
WICHITA MCCONL SUNNY     29  11  47 SE8       30.52
WINFIELD       SUNNY     29  15  56 VRB3      30.56S
$$

KSZ007>012-019>026-033>040-048>060-102>105-051700-
NORTHEAST KANSAS

CITY           SKY/WX    TMP DP  RH WIND       PRES   REMARKS
CONCORDIA      SUNNY     21   4  47 SE10      30.51S WCI  10
EMPORIA        SUNNY     21   7  54 E7        30.55F
LAWRENCE       SUNNY     20   1  43 VRB6      30.61R
MANHATTAN      SUNNY     21   5  50 E7        30.56F
OLATHE IND     SUNNY     18   0  45 N7        30.59R
OLATHE EXE     SUNNY     19  -2  39 N8        30.57S
SALINA         SUNNY     26   7  44 SE10      30.52S WCI  16
TOPEKA BILLARD SUNNY     20   1  43 VRB5      30.61S
TOPEKA FORBES  SUNNY     20   1  43 VRB5      30.58S
$$



USA.gov is the U.S. government's official web portal to all federal, state and local government web resources and services.